Location: Madrid
(40.4000°N, 3.6830°W)
Time: 01:05:13
(UTC+01:00)

ISS - Pass Details

Date: 20 February 2020
Orbit: 415 x 422 km, 51.6° (Epoch: 27 February)

Event Time Altitude Azimuth Distance (km) Brightness Sun altitude
Rises 06:37:02 0° 184° (S) 2,348 0.0 -16.9°
Reaches altitude 10° 06:40:19 10° 148° (SSE) 1,493 -0.5 -16.3°
Maximum altitude 06:41:28 11° 128° (SE) 1,413 -0.3 -16.1°
Drops below altitude 10° 06:42:37 10° 108° (ESE) 1,498 0.2 -15.9°
Sets 06:45:55 0° 73° (ENE) 2,370 1.5 -15.2°
